Flag for Cuba Weather past 2 weeks in Santiago de Cuba, Cuba

Now
77 °F

Partly cloudy.


Feels Like: 78 °F
Forecast: 74 / 89 °F
Wind: 7 mph from North

Location: Santiago De Cuba - Oriente

Current Time: Sep 16, 2014 at 6:09:21 AM

Latest Report: Sep 16, 2014 at 4:53 AM


Visibility: 6 mi

Pressure: 29.98 "Hg

Humidity: 83%

Dew point: 72 °F

Location of Santiago de CubaLocation

Historic Weather in Santiago de Cuba — Graph

°F

Santiago de Cuba temperature yesterday

Maximum temperature yesterday: 90 °F (at 10:52 AM)
Minimum temperature yesterday: 75 °F (at 6:53 AM)
Average temperature yesterday: 82 °F

Past Weeks' High & Low Weather Summary

 TemperatureHumidityPressure
High91 °F (Sep 4, 11:52 AM)94% (Sep 6, 5:53 PM)30.07 "Hg (Sep 6, 5:53 PM)
Low72 °F (Sep 6, 2:52 PM)43% (Sep 14, 10:52 AM)29.89 "Hg (Sep 7, 4:51 PM)
Average81 °F72%29.98 "Hg
* Reported Sep 1 4:51 AM — Sep 16 4:53 AM, Santiago de Cuba, Weather by CustomWeather, © 2014

Note: Actual official high and low records may vary slightly from our data, if they occured in-between our weather recording intervals... More about our weather records

Advertising

Santiago de Cuba weather history for previous 24 hours

 ConditionsComfort  
Time TempWeatherWind HumidityBarometerVisibility
4:53 AM
Sep 16
77 °FPartly cloudy.7 mph83%29.98 "Hg6 mi
3:54 AM77 °FPartly cloudy.7 mph79%29.98 "Hg6 mi
2:54 AM77 °FPartly cloudy.7 mph79%29.98 "Hg6 mi
1:53 AM79 °FPartly cloudy.6 mph74%30.01 "Hg6 mi
12:51 AM79 °FPartly cloudy.5 mph74%30.04 "Hg6 mi
11:53 PM
Sep 15
81 °FPartly cloudy.8 mph74%30.04 "Hg6 mi
10:51 PM79 °FThundershowers. Partly cloudy.7 mph74%N/A5 mi
9:55 PM79 °FPassing clouds.7 mph74%30.04 "Hg6 mi
8:55 PM82 °FPartly cloudy.7 mph66%30.04 "Hg5 mi
7:51 PM82 °FBroken clouds.6 mph74%30.01 "Hg5 mi
6:52 PM84 °FScattered showers. Broken clouds.9 mph70%30.01 "Hg5 mi
5:50 PM86 °FScattered clouds.10 mph66%29.98 "Hg6 mi
4:50 PM88 °FScattered clouds.9 mph59%29.98 "HgN/A
3:50 PM88 °FScattered clouds.9 mph62%29.98 "HgN/A
2:50 PM88 °FScattered clouds.12 mph59%30.01 "HgN/A
1:51 PM88 °FScattered clouds.10 mph55%30.01 "HgN/A
12:50 PM88 °FScattered clouds.9 mph55%30.04 "HgN/A
11:50 AM88 °FScattered clouds.8 mph52%30.07 "HgN/A
10:52 AM90 °FPassing clouds.6 mph49%30.07 "HgN/A
9:51 AM88 °FPassing clouds.9 mph52%30.07 "HgN/A
8:50 AM82 °FPassing clouds.7 mph66%30.07 "Hg6 mi
7:50 AM77 °FPassing clouds.7 mph79%30.04 "Hg6 mi
6:53 AM75 °FPassing clouds.7 mph83%30.04 "Hg6 mi
Weather by CustomWeather, © 2014

See weather overviewHow to use our weather pages